Regional Weather Roundup
Issued by NWS

Home | Current Version | Previous Version | Text Only | Print | Product List | Glossary Off
Versions: 1 2 3 4 5 6 7 8 9 10 11 12 13 14 15 16 17 18 19 20 21 22 23 24 25 26 27 28 29 30 31 32 33 34 35 36 37 38 39 40 41 42 43 44 45 46 47 48 49 50

000
ASUS43 KFSD 042010
RWRSD

WEATHER ROUNDUP FOR SOUTH DAKOTA
NATIONAL WEATHER SERVICE SIOUX FALLS SD
200 PM CST SUN DEC 04 2016

NOTE: "FAIR" INDICATES FEW OR NO CLOUDS BELOW 12,000 FEET WITH NO
SIGNIFICANT WEATHER AND/OR OBSTRUCTIONS TO VISIBILITY.


SDZ001>005-009-010-012>017-042100-
NORTHWEST AND NORTH CENTRAL SOUTH DAKOTA

CITY           SKY/WX    TMP DP  RH WIND       PRES   REMARKS
BUFFALO          N/A     44  23  43 SW16      29.63F
FAITH            N/A     38  28  67 SW10      29.74F
MOBRIDGE       SUNNY     37  23  56 W5        29.73F
$$

SDZ012>016-024>037-041>051-057-063-072>074-042100-
SOUTHWEST AND SOUTH CENTRAL SOUTH DAKOTA

CITY           SKY/WX    TMP DP  RH WIND       PRES   REMARKS
RAPID CTY ARPT SUNNY     48  14  25 W3        29.74F
PIERRE         SUNNY     38  26  62 SW7       29.78F
CUSTER         SUNNY     34  10  37 W10G22    29.73F WCI  26
ELLSWORTH AFB  SUNNY     48  15  26 N7        29.73F
PHILIP         SUNNY     45  26  47 SW12      29.78F
PINE RIDGE     SUNNY     42  20  41 W8        29.80F
SPEARFISH      FAIR      41  12  30 W10G17    29.71F
WINNER         FAIR      48  25  40 W15       29.82F
$$

SDZ004>011-016>023-039-040-042100-
NORTHEAST SOUTH DAKOTA

CITY           SKY/WX    TMP DP  RH WIND       PRES   REMARKS
ABERDEEN       SUNNY     41  30  65 W12       29.75F
WATERTOWN      PTSUNNY   37  30  75 W16       29.74F
BROOKINGS      SUNNY     39  32  76 W18       29.76F
SISSETON         N/A     37  31  78 NW17      29.72F
$$

SDZ017-020-022-023-036>040-048>070-042100-
SOUTHEAST SOUTH DAKOTA

CITY           SKY/WX    TMP DP  RH WIND       PRES   REMARKS
SIOUX FALLS    SUNNY     43  33  68 W12       29.81F
HURON          SUNNY     43  32  65 W12       29.79F
CHAMBERLAIN    SUNNY     45  30  56 W14       29.82F
MITCHELL       SUNNY     44  32  62 W9        29.82F
YANKTON        SUNNY    N/A N/A N/A W15G22    29.83F
$$

ABBREVIATIONS USED IN REMARKS
   TC - TEMPERATURE IN CELSIUS
  WCI - WIND CHILL INDEX
   HX - HEAT INDEX
  VSB - VISIBILITY





USA.gov is the U.S. government's official web portal to all federal, state and local government web resources and services.